^^
WestSenecaWeather Station Historical Data
 
Daily Summary for April 23, 2018 Units:  English    Metric   Both
Daily Weekly Monthly Yearly Custom
  Current: High: Low: Average:
Temperature: 40.0 °F 44.7 °F 40.0 °F 42.3 °F
Dew Point: 24.7 °F 25.1 °F 23.5 °F 24.3 °F
Humidity: 54% 54% 43% 49%
Wind Speed: 0.0mph 1.2mph 0.0mph 0.1mph
Wind Gust: 0.0mph 1.2mph - -
WindCalm - - SW
Pressure: 30.38 in 30.38 in 30.37 in -
Precipitation: 0.00 in      
Historical Graphs
 
 
Tabular Data for April 23, 2018
Time Temperature Dew Point Pressure Wind Wind Speed Wind Gust Humidity Rainfall Rate (Hourly) solar
00:02 44.7 °F 23.5 °F 30.37 in Calm     43% 0.00 in 0.0 W/m2
00:07 44.7 °F 23.5 °F 30.37 in Calm     43% 0.00 in 0.0 W/m2
00:13 44.0 °F 23.5 °F 30.37 in SW 1.2 mph 1.2 mph 44% 0.00 in 0.0 W/m2
00:18 44.0 °F 24.0 °F 30.37 in Calm     45% 0.00 in 0.0 W/m2
00:23 43.8 °F 23.8 °F 30.38 in Calm     45% 0.00 in 0.0 W/m2
00:28 43.4 °F 24.0 °F 30.38 in Calm     46% 0.00 in 0.0 W/m2
00:33 43.1 °F 23.7 °F 30.38 in Calm     46% 0.00 in 0.0 W/m2
00:38 42.7 °F 23.8 °F 30.38 in Calm     47% 0.00 in 0.0 W/m2
00:43 42.3 °F 24.0 °F 30.38 in Calm     48% 0.00 in 0.0 W/m2
00:48 42.3 °F 24.0 °F 30.38 in SW 1.2 mph 1.2 mph 48% 0.00 in 0.0 W/m2
00:53 42.3 °F 24.5 °F 30.38 in Calm     49% 0.00 in 0.0 W/m2
00:58 42.0 °F 24.7 °F 30.38 in Calm     50% 0.00 in 0.0 W/m2
01:03 41.6 °F 24.8 °F 30.38 in Calm     51% 0.00 in 0.0 W/m2
01:08 41.2 °F 24.9 °F 30.38 in Calm     52% 0.00 in 0.0 W/m2
01:13 40.9 °F 24.6 °F 30.38 in Calm     52% 0.00 in 0.0 W/m2
01:18 40.9 °F 25.1 °F 30.38 in Calm     53% 0.00 in 0.0 W/m2
01:23 40.8 °F 24.5 °F 30.38 in Calm     52% 0.00 in 0.0 W/m2
01:28 40.7 °F 24.9 °F 30.38 in Calm     53% 0.00 in 0.0 W/m2
01:33 40.4 °F 25.1 °F 30.38 in Calm     54% 0.00 in 0.0 W/m2
01:38 40.0 °F 24.7 °F 30.38 in Calm     54% 0.00 in 0.0 W/m2
west seneca weather
Compliments of Weather Underground - 2 mb